Regional Weather Roundup
Issued by NWS

Home | Current Version | Previous Version | Graphics & Text | Print | Product List | Glossary On
Versions: 1 2 3 4 5 6 7 8 9 10 11 12 13 14 15 16 17 18 19 20 21 22 23 24 25 26 27 28 29 30 31 32 33 34 35 36 37 38 39 40 41 42 43 44 45 46 47 48 49 50
000
ASUS43 KMKX 251614
RWRWI

WISCONSIN REGIONAL WEATHER ROUNDUP
NATIONAL WEATHER SERVICE MILWAUKEE/SULLIVAN WI
1100 AM CDT MON MAY 25 2015

NOTE: "FAIR" INDICATES FEW OR NO CLOUDS BELOW 12,000 FEET WITH NO
SIGNIFICANT WEATHER AND/OR OBSTRUCTIONS TO VISIBILITY.

WIZ001-002-006>008-014>016-023>028-251700-
NORTHWEST WISCONSIN

CITY           SKY/WX    TMP DP  RH WIND       PRES   REMARKS
SUPERIOR ARPT  LGT RAIN  50  49  98 E10G18    29.71R
ASHLAND        LGT RAIN  50  50 100 N9        29.68F VSB 1/2
HAYWARD        LGT RAIN  60  57  89 S7        29.68S FOG
SIREN          CLOUDY    59  58  95 SE6       29.68S
CUMBERLAND     CLOUDY    57  57 100 SW7       29.69S
RICE LAKE      CLOUDY    60  58  94 S8        29.70S
CHETEK         CLOUDY    60  60  98 S6        29.69S
LADYSMITH      CLOUDY    61  60  97 SW6       29.71R FOG
EAU CLAIRE     CLOUDY    64  61  90 SW9       29.69S
MENOMONIE      CLOUDY    65  64  94 S8        29.69F FOG
NEW RICHMOND   CLOUDY    64  62  93 SW10G17   29.68S
OSCEOLA        CLOUDY    64  64 100 SW10      29.70F
$$

WIZ003>005-009-010-017-018-251700-
NORTH CENTRAL WISCONSIN

CITY           SKY/WX    TMP DP  RH WIND       PRES   REMARKS
MANITOWISH WTR RAIN      60  60 100 S5        29.68F
ARBOR VITAE    RAIN      62  60  94 SE7       29.69S
WOODRUFF       RAIN      62  60  94 SE7       29.69S
RHINELANDER    CLOUDY    61  59  93 S7        29.71S
EAGLE RIVER    LGT RAIN  58  58  99 SE7       29.70S
LAND O LAKES   LGT RAIN  59  58  97 SE5       29.71F
PHILLIPS       DRIZZLE   61  61 100 S5        29.68S
TOMAHAWK       LGT RAIN  61  60  96 CALM      29.70S
MEDFORD        RAIN      61  61  98 SW12      29.71R
MERRILL        LGT RAIN  62  62 100 S5        29.71S
$$

WIZ029-030-035-036-043>047-251700-
CENTRAL WISCONSIN

CITY           SKY/WX    TMP DP  RH WIND       PRES   REMARKS
WAUSAU         CLOUDY    63  63 100 S5        29.70S
MOSINEE        NOT AVBL
MARSHFIELD     CLOUDY    66  62  87 SW12      29.73R
STEVENS POINT  RAIN      63  62  96 SW7       29.73R
WAUPACA        LGT RAIN  68  67  98 SW10G20   29.73R
WAUTOMA        CLOUDY    69  69 100 SW12G20   29.75R
WISC RAPIDS    LGT RAIN  66  62  87 W14G22    29.75R
CAMP DOUGLAS   PTSUNNY   67  67 100 SW10G17   29.74R
$$

WIZ011>013-019>022-031-037>040-048>050-251700-
NORTHEAST WISCONSIN

CITY           SKY/WX    TMP DP  RH WIND       PRES   REMARKS
ANTIGO         RAIN      58  58 100 SE7       29.72S
SHAWANO        DRIZZLE   66  65  95 CALM      29.69F
OCONTO         CLOUDY    63  63 100 S6        29.69F
STURGEON BAY   CLOUDY    61  55  82 S15G22    29.75F
GREEN BAY      LGT RAIN  68  65  90 S16       29.70F FOG
MANITOWOC      CLOUDY    61  58  90 S16       29.75S
APPLETON       DRIZZLE   66  66 100 SW14G30   29.72R
CLINTONVILLE   CLOUDY    64  63  94 W7        29.70R
OSHKOSH        CLOUDY    69  63  81 SW12G22   29.74R
$$

WIZ032>034-041-042-053>061-251700-
SOUTHWEST WISCONSIN

CITY           SKY/WX    TMP DP  RH WIND       PRES   REMARKS
LA CROSSE      PTSUNNY   71  63  75 SW14G22   29.73S
SPARTA         CLOUDY    66  61  82 SW6       29.75S
VIROQUA        CLOUDY    66  66 100 SW15G22   29.78S
BOSCOBEL       CLOUDY    68  63  84 SW10      29.79R
PRAIRIE DU CHI CLOUDY    68  62  82 SW9G16    29.79R
PLATTEVILLE    CLOUDY    67  65  94 SW15G23   29.83R
$$

WIZ056-057-062-063-064-067-068-251700-
SOUTH CENTRAL WISCONSIN

CITY           SKY/WX    TMP DP  RH WIND       PRES   REMARKS
REEDSBURG      CLOUDY    66  63  89 SW13      29.77R
BARABOO/DELLS  DRIZZLE   65  62  89 SW13      29.78R
LONE ROCK      LGT RAIN  66  63  90 SW9       29.79S
MINERAL POINT  CLOUDY    66  64  94 SW13      29.81F
MADISON        CLOUDY    69  61  75 VRB7      29.79R
MIDDLETON      CLOUDY    68  65  90 SW9G16    29.80R
WATERTOWN      CLOUDY    71  66  86 SW20G26   29.79R
MONROE         CLOUDY    68  63  83 SW21G26   29.83R
JANESVILLE     CLOUDY    72  63  73 SW12G20   29.82R
$$

WIZ051-052-058>065-066-070>072-251700-
SOUTHEAST WISCONSIN

CITY           SKY/WX    TMP DP  RH WIND       PRES   REMARKS
MILWAUKEE      PTSUNNY   72  64  76 SW15G25   29.80S
WAUKESHA       MOSUNNY   70  63  78 S14       29.81S
MILWAUKEE/TIMM PTSUNNY   72  63  73 SW15      29.79F
RACINE         PTSUNNY   71  64  78 SW14G25   29.83S
BURLINGTON     PTSUNNY   69  63  81 SW15      29.82S
KENOSHA        PTSUNNY   70  66  87 MISG      29.83S
FOND DU LAC    CLOUDY    70  62  76 SW13G24   29.76R
SHEBOYGAN      PTSUNNY   73  64  73 SW20G35   29.76S
WEST BEND      PTSUNNY   73  63  68 SW15G25   29.78R
JUNEAU         CLOUDY    69  62  79 SW20G26   29.80R
$$

LSZ147-162-251700-
LAKE SUPERIOR

STATION/POSITION TIME  TEMP    WIND        PRES    WAVE
                       AIR SEA DIR/SP/G            HT/PER
                 (UTC) (F)     (DEG/KT/KT) (MB)    (FT/S)
W MID LAKE BUOY  1550   42 36   40/ 19/ 21 1064.0F   3/ 4
DEVILS ISLAND    1600   45      60/ 23/ 25 1058.0F
PORT WING        1500   48      40/ 13/ 15 1061.0F
SAXON HARBOR     1500   49      60/  4/  6 1051.0
$$

LMZ867-665-643>646-251700-
LAKE MICHIGAN

STATION/POSITION TIME  TEMP    WIND        PRES    WAVE
                       AIR SEA DIR/SP/G            HT/PER
                 (UTC) (F)     (DEG/KT/KT) (MB)    (FT/S)
CHAMBERS ISLAND  1500   58     130/  4/  8 1071.0F
N MID LAKE BUOY  1550   44 36  180/ 12/ 14 1082.0F   1
NORTHPORT PIER   1500   48     140/ 12/ 13 1078.0F
SISTER BAY       1503   57     150/ 10/ 14   N/A
KEWAUNEE LAKESHO 1500   48     180/ 11/ 12 1070.0F
SHEBOYGAN LAKESH 1600   50     170/ 21/ 23 1081.0F
PORT WASHINGTON  1540   56     180/  9/ 11   N/A
ATWATER BUOY     1500   63 46  220/ 17/ 19   N/A
MILWAUKEE LAKESH 1500          220/ 13/ 16   N/A
S MID LAKE BUOY  1550   49 38  190/ 17/ 19   N/A     2/ 4
KENOSHA   LAKESH 1600   71     230/ 17/ 22   N/A
$$

TC  - TEMPERATURE IN CELSIUS
VSB - VISIBILITY IN STATUTE MILES
WCI - WIND CHILL INDEX
HX  - HEAT INDEX




USA.gov is the U.S. government's official web portal to all federal, state and local government web resources and services.